Flag for French Polynesia Weather past 2 weeks in Papeete, Tahiti, French Polynesia

82 °F

Scattered clouds.

Feels Like: 86 °F
Forecast: 76 / 83 °F
Wind: 7 mph from Southwest

Location: Tahiti-Faaa

Current Time: Oct 7, 2015 at 11:59:22 AM

Latest Report: Oct 7, 2015 at 11:30 AM

Visibility: N/A

Pressure: 29.95 "Hg

Humidity: 66%

Dew point: 70 °F

Location of PapeeteLocation

Historic Weather in Papeete — Graph


Papeete temperature yesterday

Maximum temperature yesterday: 82 °F (at 11:30 AM)
Minimum temperature yesterday: 73 °F (at 1:00 AM)
Average temperature yesterday: 78 °F

Past Weeks' High & Low Weather Summary

High86 °F (Sep 23, 11:00 AM)94% (Oct 4, 1:30 AM)30.01 "Hg (Oct 4, 1:30 AM)
Low70 °F (Sep 26, 4:00 AM)50% (Sep 25, 9:00 PM)29.74 "Hg (Sep 24, 2:00 PM)
Average78 °F72%29.90 "Hg
* Reported Sep 22 11:00 AM — Oct 7 11:00 AM, Papeete, Weather by CustomWeather, © 2015

Note: Actual official high and low records may vary slightly from our data, if they occured in-between our weather recording intervals... More about our weather records


Papeete weather history for previous 24 hours

Time TempWeatherWind HumidityBarometerVisibility
11:00 AM
Wed, Oct 7
84 °FPassing clouds.7 mph66%29.95 "HgN/A
10:30 AM84 °FPassing clouds.5 mph62%29.98 "HgN/A
10:00 AM82 °FPassing clouds.7 mph70%29.98 "HgN/A
9:41 AM81 °FPassing clouds.8 mph74%29.98 "HgN/A
9:00 AM81 °FPassing clouds.6 mph70%29.98 "HgN/A
8:30 AM81 °FPassing clouds.6 mph70%30.01 "HgN/A
8:00 AM81 °FPassing clouds.2 mph70%29.98 "HgN/A
7:30 AM79 °FPassing clouds.2 mph70%29.98 "HgN/A
7:00 AM77 °FPartly sunny.3 mph74%29.98 "HgN/A
6:30 AM77 °FPartly sunny.3 mph74%29.98 "HgN/A
6:00 AM75 °FPartly sunny.6 mph78%29.98 "HgN/A
5:30 AM75 °FOvercast.5 mph78%29.98 "HgN/A
5:00 AM75 °FOvercast.3 mph78%29.95 "HgN/A
4:30 AM75 °FOvercast.3 mph78%29.95 "HgN/A
4:00 AM75 °FOvercast.No wind78%29.92 "HgN/A
3:30 AM75 °FOvercast.2 mph78%29.92 "HgN/A
3:00 AM73 °FPassing clouds.3 mph83%29.92 "HgN/A
2:30 AM73 °FPassing clouds.3 mph83%29.92 "HgN/A
2:00 AM73 °FPassing clouds.3 mph83%29.95 "HgN/A
1:30 AM73 °FPassing clouds.3 mph83%29.95 "HgN/A
1:00 AM73 °FPassing clouds.2 mph83%29.95 "HgN/A
12:30 AM75 °FPassing clouds.No wind78%29.95 "HgN/A
12:00 AM75 °FPassing clouds.2 mph78%29.95 "HgN/A
11:30 PM
Tue, Oct 6
75 °FPassing clouds.5 mph78%29.98 "HgN/A
11:00 PM75 °FPassing clouds.3 mph78%29.98 "HgN/A
10:30 PM77 °FPassing clouds.5 mph74%29.98 "HgN/A
10:00 PM77 °FPassing clouds.3 mph74%29.98 "HgN/A
9:30 PM77 °FPassing clouds.3 mph74%29.98 "HgN/A
9:00 PM77 °FPassing clouds.5 mph74%29.98 "HgN/A
8:30 PM77 °FPassing clouds.6 mph74%29.98 "HgN/A
8:00 PM77 °FPassing clouds.3 mph74%29.95 "HgN/A
7:30 PM77 °FPassing clouds.1 mph74%29.95 "HgN/A
7:00 PM77 °FPassing clouds.10 mph74%29.95 "HgN/A
6:30 PM79 °FPassing clouds.7 mph70%29.92 "HgN/A
5:30 PM79 °FPartly sunny.2 mph70%29.92 "HgN/A
5:00 PM79 °FPartly sunny.8 mph70%29.89 "HgN/A
4:00 PM81 °FPartly sunny.6 mph66%29.89 "HgN/A
3:00 PM82 °FPartly sunny.7 mph62%29.89 "HgN/A
2:30 PM82 °FPartly sunny.8 mph62%29.89 "HgN/A
2:00 PM82 °FPartly sunny.10 mph62%29.89 "HgN/A
1:30 PM81 °FScattered clouds.9 mph70%29.89 "HgN/A
1:00 PM81 °FScattered clouds.6 mph70%29.92 "HgN/A
12:30 PM81 °FScattered clouds.9 mph70%29.92 "HgN/A
12:00 PM81 °FScattered clouds.12 mph70%29.92 "HgN/A
11:30 AM82 °FPartly sunny.7 mph66%29.95 "HgN/A
11:00 AM81 °FPartly sunny.7 mph70%29.95 "HgN/A
Weather by CustomWeather, © 2015

See weather overviewHow to use our weather pages